GW2960 Weather Reports


Display with metric or nautical units.
time (UTC)temp
F
wind
direction
speed
MPH
gust
MPH
rain 1hr
in
rain 24hr
in
rain mn
in
humidity
%
barometer
mb
20260505054557 75 49 4.0 12.0 0.00 0.85 0.00 88 1013.7
20260505053022 76 78 5.0 12.0 0.00 0.85 0.00 88 1014.2
20260505051549 75 48 6.0 11.0 0.00 0.85 0.00 88 1014.3
20260505041507 76 71 6.0 15.0 0.00 0.85 0.00 89 1014.8
20260505040033 76 105 7.0 14.0 0.00 0.85 0.00 89 1014.7
20260505034523 76 64 5.0 14.0 0.00 0.85 0.85 89 1014.9
20260505033055 76 46 5.0 18.0 0.00 0.85 0.85 89 1014.7
20260505031525 76 72 10.0 17.0 0.00 0.85 0.85 88 1014.6
20260505030114 76 81 7.0 15.0 0.00 0.85 0.85 87 1014.6
20260505024504 76 85 8.0 13.0 0.00 0.85 0.85 87 1014.8
20260505023027 76 92 6.0 15.0 0.02 0.85 0.85 87 1014.7
20260505021553 75 84 10.0 18.0 0.08 0.85 0.85 87 1014.6
20260505020032 75 59 9.0 18.0 0.09 0.85 0.85 89 1014.9
20260505014531 76 66 8.0 17.0 0.09 0.85 0.85 90 1014.6
20260505013049 75 76 5.0 17.0 0.06 0.82 0.83 90 1014.6
20260505011506 76 102 8.0 15.0 0.00 0.76 0.76 88 1014.5
20260505010041 77 122 5.0 15.0 0.00 0.76 0.76 87 1014.4
20260505004547 77 109 7.0 17.0 0.00 0.76 0.76 85 1014.1
20260505003009 78 98 8.0 16.0 0.00 0.76 0.76 80 1014.0
20260505001527 78 81 9.0 16.0 0.00 0.76 0.76 79 1013.9
20260505000059 78 71 8.0 17.0 0.00 0.76 0.76 79 1014.0
20260504234551 78 126 9.0 20.0 0.00 0.79 0.76 78 1013.9
20260504233018 78 60 7.0 18.0 0.00 0.79 0.76 80 1013.8
20260504231535 78 63 10.0 17.0 0.00 0.79 0.76 79 1013.7
20260504230002 78 54 9.0 18.0 0.00 0.79 0.76 79 1013.6
20260504224503 78 70 9.0 17.0 0.00 0.81 0.76 78 1013.5
20260504223032 78 73 11.0 20.0 0.00 0.81 0.76 78 1013.6
20260504221552 78 109 9.0 15.0 0.00 0.81 0.76 78 1013.7
20260504220013 79 84 6.0 17.0 0.00 0.81 0.76 78 1013.6
20260504214511 79 122 8.0 16.0 0.00 0.81 0.76 77 1013.6
20260504213044 79 131 9.0 18.0 0.00 0.81 0.76 78 1013.5
20260504211518 79 48 9.0 19.0 0.00 0.81 0.76 79 1013.5
20260504210046 78 109 8.0 19.0 0.00 0.81 0.76 79 1013.8
20260504204546 78 53 10.0 20.0 0.00 0.81 0.76 79 1013.8
20260504203007 78 24 9.0 20.0 0.00 0.81 0.76 79 1013.6
20260504201537 79 90 9.0 18.0 0.00 0.81 0.76 79 1014.0
20260504200006 78 67 9.0 21.0 0.00 0.81 0.76 79 1013.9
20260504194515 79 108 9.0 17.0 0.00 0.81 0.76 79 1014.1
20260504193039 79 71 11.0 24.0 0.00 0.81 0.76 80 1014.2
20260504191511 78 85 10.0 23.0 0.00 0.81 0.76 80 1014.6
20260504190029 78 85 9.0 23.0 0.00 0.81 0.76 79 1014.8
20260504184542 79 99 10.0 19.0 0.00 0.81 0.76 78 1015.0
20260504183058 79 26 10.0 24.0 0.00 0.81 0.76 78 1015.0
20260504181517 79 67 11.0 19.0 0.00 0.81 0.76 78 1015.0
20260504180054 79 71 10.0 21.0 0.00 0.81 0.76 78 1015.0
20260504174553 79 111 7.0 21.0 0.00 0.82 0.76 80 1015.2
20260504173020 78 107 9.0 20.0 0.00 0.82 0.76 82 1015.2
20260504171549 77 57 9.0 19.0 0.33 0.82 0.76 85 1015.4
20260504081516 74 350 1.0 5.0 0.36 0.55 0.36 93 1012.4